| time (UTC) | temp F | wind direction | speed knots | gust knots | rain 1hr in | rain 24hr in | rain mn in | humidity % | barometer mb |
| 20260831141703 | 70 | 207 | 0.9 | 7.8 | 0.00 | 0.32 | 0.32 | 91 | 1038.3 |
| 20260831141158 | 69 | 224 | 3.5 | 7.8 | 0.00 | 0.32 | 0.32 | 91 | 1038.4 |
| 20260831140658 | 69 | 225 | 6.1 | 9.6 | 0.00 | 0.32 | 0.32 | 91 | 1038.4 |
| 20260831140153 | 69 | 241 | 4.3 | 7.8 | 0.00 | 0.32 | 0.32 | 92 | 1038.3 |
| 20260831135650 | 69 | 108 | 0.0 | 6.1 | 0.00 | 0.32 | 0.32 | 93 | 1038.1 |
| 20260831135146 | 68 | 181 | 1.7 | 7.8 | 0.00 | 0.32 | 0.32 | 94 | 1038.2 |
| 20260831134642 | 68 | 89 | 0.0 | 5.2 | 0.00 | 0.32 | 0.32 | 95 | 1038.4 |
| 20260831134138 | 68 | 233 | 2.6 | 5.2 | 0.00 | 0.32 | 0.32 | 94 | 1038.5 |
| 20260831133636 | 68 | 234 | 5.2 | 8.7 | 0.00 | 0.32 | 0.32 | 95 | 1038.4 |
| 20260831133131 | 67 | 221 | 2.6 | 5.2 | 0.00 | 0.32 | 0.32 | 96 | 1038.3 |
| 20260831132627 | 67 | 218 | 1.7 | 4.3 | 0.02 | 0.32 | 0.32 | 98 | 1038.5 |
| 20260831132126 | 67 | 124 | 0.9 | 1.7 | 0.02 | 0.32 | 0.32 | 98 | 1038.5 |
| 20260831131621 | 66 | 200 | 0.9 | 3.5 | 0.00 | 0.32 | 0.32 | 99 | 1038.6 |
| 20260831131118 | 66 | 238 | 2.6 | 4.3 | 0.02 | 0.32 | 0.32 | 99 | 1038.6 |
| 20260831130613 | 66 | 241 | 0.0 | 1.7 | 0.02 | 0.32 | 0.32 | 99 | 1038.3 |
| 20260831130109 | 66 | 240 | 2.6 | 5.2 | 0.00 | 0.31 | 0.31 | 99 | 1038.7 |
| 20260831125607 | 66 | 147 | 0.0 | 2.6 | 0.00 | 0.31 | 0.31 | 99 | 1038.3 |
| 20260831125102 | 65 | 48 | 0.0 | 1.7 | 0.00 | 0.31 | 0.31 | 99 | 1038.5 |
| 20260831124559 | 65 | 20 | 0.0 | 2.6 | 0.02 | 0.31 | 0.31 | 99 | 1038.4 |
| 20260831124054 | 66 | 120 | 0.0 | 2.6 | 0.02 | 0.31 | 0.31 | 99 | 1038.7 |
| 20260831123553 | 65 | 32 | 0.0 | 1.7 | 0.07 | 0.31 | 0.31 | 99 | 1038.4 |
| 20260831123048 | 66 | 89 | 0.0 | 3.5 | 0.07 | 0.30 | 0.30 | 99 | 1038.6 |
| 20260831122543 | 66 | 207 | 1.7 | 4.3 | 0.02 | 0.29 | 0.29 | 99 | 1038.6 |
| 20260831122038 | 66 | 89 | 0.0 | 3.5 | 0.00 | 0.29 | 0.29 | 99 | 1038.5 |
| 20260831121532 | 66 | 208 | 0.0 | 4.3 | 0.00 | 0.29 | 0.29 | 99 | 1038.4 |
| 20260831121029 | 66 | 124 | 2.6 | 2.6 | 0.05 | 0.29 | 0.29 | 99 | 1038.4 |
| 20260831120527 | 66 | 230 | 0.0 | 3.5 | 0.26 | 0.29 | 0.29 | 99 | 1038.6 |
| 20260831120023 | 66 | 101 | 0.0 | 1.7 | 0.35 | 0.28 | 0.28 | 99 | 1038.5 |
| 20260831115519 | 66 | 269 | 0.0 | 5.2 | 0.38 | 0.24 | 0.24 | 99 | 1038.5 |
| 20260831115015 | 66 | 141 | 1.7 | 3.5 | 0.21 | 0.22 | 0.22 | 99 | 1038.8 |
| 20260831114514 | 66 | 169 | 0.0 | 2.6 | 0.00 | 0.18 | 0.18 | 99 | 1038.8 |
| 20260831114009 | 66 | 135 | 0.0 | 3.5 | 0.07 | 0.18 | 0.18 | 99 | 1038.8 |
| 20260831113508 | 66 | 193 | 0.0 | 2.6 | 0.14 | 0.18 | 0.18 | 99 | 1038.6 |
| 20260831113004 | 66 | 155 | 1.7 | 2.6 | 0.12 | 0.17 | 0.17 | 99 | 1038.9 |
| 20260831112503 | 66 | 170 | 1.7 | 2.6 | 0.19 | 0.16 | 0.16 | 99 | 1038.8 |
| 20260831111958 | 66 | 243 | 0.0 | 3.5 | 0.17 | 0.15 | 0.15 | 99 | 1038.8 |
| 20260831111454 | 66 | 152 | 1.7 | 2.6 | 0.07 | 0.13 | 0.13 | 99 | 1038.9 |
| 20260831110949 | 66 | 145 | 0.9 | 1.7 | 0.12 | 0.12 | 0.12 | 98 | 1039.1 |
| 20260831110444 | 66 | 217 | 0.0 | 2.6 | 0.40 | 0.11 | 0.11 | 98 | 1038.9 |
| 20260831105943 | 66 | 242 | 0.0 | 3.5 | 0.45 | 0.10 | 0.10 | 98 | 1038.9 |
| 20260831105439 | 66 | 277 | 2.6 | 6.1 | 0.12 | 0.04 | 0.04 | 97 | 1039.1 |
| 20260831104939 | 66 | 326 | 1.7 | 4.3 | 0.00 | 0.02 | 0.02 | 97 | 1038.7 |
| 20260831104435 | 66 | 36 | 0.0 | 2.6 | 0.00 | 0.02 | 0.02 | 98 | 1038.8 |
| 20260831103931 | 66 | 139 | 1.7 | 3.5 | 0.00 | 0.02 | 0.02 | 98 | 1038.6 |
| 20260831103426 | 66 | 125 | 0.0 | 1.7 | 0.00 | 0.02 | 0.02 | 98 | 1038.7 |
| 20260831102921 | 66 | 65 | 0.0 | 1.7 | 0.00 | 0.02 | 0.02 | 98 | 1038.6 |
| 20260831102416 | 66 | 147 | 0.0 | 2.6 | 0.00 | 0.02 | 0.02 | 98 | 1038.7 |
| 20260831101911 | 66 | 183 | 0.0 | 4.3 | 0.00 | 0.02 | 0.02 | 98 | 1038.7 |
| 20260831101406 | 66 | 131 | 1.7 | 2.6 | 0.00 | 0.02 | 0.02 | 98 | 1038.8 |
| 20260831100903 | 66 | 44 | 0.0 | 1.7 | 0.00 | 0.02 | 0.02 | 98 | 1038.6 |
| 20260831100358 | 66 | 52 | 0.0 | 1.7 | 0.00 | 0.02 | 0.02 | 98 | 1038.6 |
| 20260831095858 | 66 | 70 | 0.9 | 2.6 | 0.00 | 0.02 | 0.02 | 98 | 1038.7 |
| 20260831095357 | 67 | 80 | 0.9 | 1.7 | 0.00 | 0.02 | 0.02 | 97 | 1038.7 |
| 20260831094853 | 67 | 293 | 0.0 | 0.9 | 0.00 | 0.02 | 0.02 | 97 | 1038.7 |
| 20260831094348 | 67 | 213 | 1.7 | 4.3 | 0.00 | 0.02 | 0.02 | 97 | 1038.8 |
| 20260831093844 | 67 | 251 | 1.7 | 4.3 | 0.00 | 0.02 | 0.02 | 97 | 1038.9 |
| 20260831093339 | 67 | 266 | 0.9 | 5.2 | 0.02 | 0.02 | 0.02 | 97 | 1038.9 |
| 20260831092836 | 67 | 254 | 2.6 | 5.2 | 0.05 | 0.02 | 0.02 | 97 | 1038.7 |
| 20260831092331 | 67 | 263 | 4.3 | 6.1 | 0.02 | 0.02 | 0.02 | 97 | 1039.0 |
| 20260831091826 | 67 | 285 | 1.7 | 3.5 | 0.00 | 0.02 | 0.02 | 98 | 1038.6 |
| 20260831091322 | 67 | 187 | 0.0 | 1.7 | 0.00 | 0.02 | 0.02 | 98 | 1038.6 |
| 20260831090817 | 66 | 284 | 0.0 | 1.7 | 0.00 | 0.02 | 0.02 | 98 | 1038.4 |
| 20260831090312 | 66 | 268 | 0.0 | 2.6 | 0.00 | 0.02 | 0.02 | 98 | 1038.7 |
| 20260831085808 | 66 | 142 | 0.0 | 4.3 | 0.00 | 0.02 | 0.02 | 98 | 1038.9 |
| 20260831085306 | 66 | 205 | 0.0 | 3.5 | 0.00 | 0.02 | 0.02 | 99 | 1038.6 |
| 20260831084758 | 66 | 187 | 2.6 | 3.5 | 0.00 | 0.02 | 0.02 | 99 | 1038.6 |
| 20260831084254 | 66 | 326 | 1.7 | 1.7 | 0.00 | 0.02 | 0.02 | 99 | 1038.9 |
| 20260831083749 | 66 | 229 | 0.0 | 1.7 | 0.00 | 0.02 | 0.02 | 99 | 1038.8 |
| 20260831083245 | 66 | 94 | 0.9 | 3.5 | 0.00 | 0.02 | 0.02 | 99 | 1038.8 |
| 20260831082743 | 66 | 225 | 2.6 | 2.6 | 0.00 | 0.02 | 0.02 | 99 | 1038.9 |
| 20260831082239 | 65 | 218 | 1.7 | 2.6 | 0.00 | 0.02 | 0.02 | 99 | 1038.9 |
| 20260831081735 | 65 | 110 | 0.0 | 2.6 | 0.00 | 0.02 | 0.02 | 99 | 1038.8 |
| 20260831081230 | 65 | 37 | 0.0 | 0.9 | 0.00 | 0.02 | 0.02 | 99 | 1039.2 |
| 20260831080726 | 65 | 262 | 1.7 | 3.5 | 0.00 | 0.02 | 0.02 | 99 | 1039.1 |
| 20260831080225 | 65 | 322 | 0.0 | 2.6 | 0.00 | 0.02 | 0.02 | 99 | 1039.3 |
| 20260831075721 | 65 | 164 | 0.0 | 0.9 | 0.00 | 0.02 | 0.02 | 99 | 1039.2 |
| 20260831075217 | 65 | 260 | 0.9 | 1.7 | 0.00 | 0.02 | 0.02 | 99 | 1039.4 |
| 20260831074717 | 65 | 104 | 0.0 | 1.7 | 0.00 | 0.02 | 0.02 | 99 | 1039.4 |
| 20260831074216 | 65 | 44 | 0.0 | 0.9 | 0.00 | 0.02 | 0.02 | 99 | 1039.3 |
| 20260831073712 | 65 | 62 | 0.0 | 0.9 | 0.00 | 0.02 | 0.02 | 99 | 1039.3 |
| 20260831073211 | 65 | 121 | 0.9 | 4.3 | 0.00 | 0.02 | 0.02 | 99 | 1039.3 |
| 20260831072706 | 65 | 62 | 0.0 | 1.7 | 0.00 | 0.02 | 0.02 | 99 | 1039.5 |
| 20260831072203 | 65 | 130 | 0.0 | 1.7 | 0.00 | 0.02 | 0.02 | 99 | 1039.7 |
| 20260831071702 | 65 | 50 | 0.0 | 0.9 | 0.00 | 0.02 | 0.02 | 99 | 1039.7 |
| 20260831071157 | 66 | 136 | 0.0 | 2.6 | 0.00 | 0.02 | 0.02 | 99 | 1039.8 |
| 20260831070656 | 66 | 163 | 0.0 | 1.7 | 0.00 | 0.02 | 0.02 | 99 | 1039.6 |
| 20260831070151 | 66 | 32 | 0.0 | 0.0 | 0.00 | 0.02 | 0.02 | 99 | 1039.9 |
| 20260831065650 | 66 | 50 | 0.0 | 0.9 | 0.00 | 0.02 | 0.02 | 99 | 1039.9 |
| 20260831065149 | 66 | 94 | 0.9 | 1.7 | 0.00 | 0.02 | 0.02 | 99 | 1039.7 |
| 20260831064643 | 66 | 104 | 0.0 | 0.0 | 0.00 | 0.02 | 0.02 | 99 | 1040.1 |
| 20260831064133 | 66 | 64 | 0.0 | 0.9 | 0.00 | 0.02 | 0.02 | 99 | 1039.9 |
| 20260831063630 | 66 | 37 | 0.0 | 0.9 | 0.00 | 0.02 | 0.02 | 99 | 1039.7 |
| 20260831063124 | 66 | 62 | 0.0 | 0.9 | 0.00 | 0.02 | 0.02 | 99 | 1040.1 |
| 20260831062624 | 66 | 75 | 0.0 | 2.6 | 0.00 | 0.02 | 0.02 | 99 | 1040.0 |
| 20260831062124 | 66 | 136 | 0.0 | 1.7 | 0.02 | 0.02 | 0.02 | 99 | 1040.2 |
| 20260831061622 | 66 | 129 | 0.0 | 1.7 | 0.05 | 0.02 | 0.02 | 99 | 1040.0 |
| 20260831061118 | 66 | 76 | 0.0 | 0.9 | 0.02 | 0.01 | 0.01 | 99 | 1040.3 |
| 20260831060614 | 66 | 297 | 0.0 | 0.0 | 0.00 | 0.01 | 0.01 | 99 | 1040.3 |
| 20260831060109 | 66 | 323 | 0.0 | 1.7 | 0.02 | 0.01 | 0.01 | 99 | 1040.4 |
| 20260831055608 | 66 | 315 | 0.0 | 0.9 | 0.02 | 0.01 | 0.01 | 99 | 1040.1 |
| 20260831055104 | 66 | 289 | 0.9 | 1.7 | 0.00 | 0.00 | 0.00 | 99 | 1040.2 |
| 20260831054603 | 66 | 38 | 0.0 | 0.9 | 0.00 | 0.00 | 0.00 | 99 | 1040.3 |
| 20260831054102 | 66 | 214 | 0.0 | 0.0 | 0.00 | 0.00 | 0.00 | 99 | 1040.3 |
| 20260831053601 | 66 | 297 | 0.0 | 0.0 | 0.00 | 0.00 | 0.00 | 99 | 1040.3 |
| 20260831053056 | 66 | 309 | 0.0 | 1.7 | 0.00 | 0.00 | 0.00 | 99 | 1040.3 |
| 20260831052555 | 66 | 343 | 0.0 | 0.0 | 0.00 | 0.00 | 0.00 | 99 | 1040.3 |
| 20260831052055 | 66 | 154 | 0.0 | 0.9 | 0.00 | 0.00 | 0.00 | 99 | 1040.3 |
| 20260831051553 | 66 | 129 | 0.0 | 1.7 | 0.02 | 0.00 | 0.00 | 99 | 1040.3 |
| 20260831051053 | 66 | 150 | 0.0 | 0.9 | 0.02 | 0.00 | 0.00 | 99 | 1040.1 |
| 20260831050553 | 66 | 137 | 0.9 | 1.7 | 0.00 | 0.00 | 0.00 | 99 | 1040.2 |
| 20260831050051 | 66 | 297 | 0.0 | 0.0 | 0.00 | 0.00 | 0.00 | 99 | 1040.3 |
| 20260831045551 | 66 | 297 | 0.0 | 0.0 | 0.00 | 0.00 | 0.00 | 99 | 1040.1 |
| 20260831045051 | 66 | 333 | 0.0 | 0.9 | 0.00 | 0.00 | 0.00 | 99 | 1040.2 |
| 20260831044547 | 66 | 288 | 0.0 | 0.9 | 0.00 | 0.00 | 0.00 | 99 | 1040.3 |
| 20260831044042 | 66 | 269 | 0.0 | 1.7 | 0.00 | 0.00 | 0.00 | 99 | 1040.1 |
| 20260831043537 | 66 | 311 | 0.0 | 2.6 | 0.00 | 0.00 | 0.00 | 99 | 1040.0 |
| 20260831043032 | 66 | 158 | 1.7 | 2.6 | 0.00 | 0.00 | 0.00 | 99 | 1040.0 |
| 20260831042526 | 66 | 269 | 0.0 | 0.0 | 0.00 | 0.00 | 0.00 | 99 | 1040.1 |
| 20260831042027 | 66 | 269 | 0.9 | 1.7 | 0.00 | 0.00 | 0.00 | 99 | 1040.5 |
| 20260831041522 | 66 | 255 | 0.0 | 1.7 | 0.00 | 0.00 | 0.00 | 99 | 1040.2 |
| 20260831041021 | 66 | 279 | 0.0 | 2.6 | 0.00 | 0.00 | 0.00 | 99 | 1040.1 |
| 20260831040516 | 66 | 224 | 0.0 | 0.9 | 0.00 | 0.00 | 0.00 | 99 | 1040.3 |
| 20260831040015 | 66 | 269 | 0.0 | 1.7 | 0.00 | 0.17 | 0.17 | 99 | 1040.2 |
| 20260831035513 | 66 | 172 | 0.0 | 1.7 | 0.02 | 0.17 | 0.17 | 99 | 1040.2 |
| 20260831035009 | 66 | 25 | 0.0 | 0.9 | 0.05 | 0.17 | 0.17 | 99 | 1040.0 |
| 20260831034503 | 66 | 126 | 0.0 | 0.9 | 0.05 | 0.16 | 0.16 | 99 | 1040.3 |
| 20260831033958 | 66 | 37 | 0.0 | 0.9 | 0.05 | 0.16 | 0.16 | 99 | 1040.3 |
| 20260831033453 | 66 | 157 | 0.0 | 0.9 | 0.07 | 0.15 | 0.15 | 99 | 1040.4 |
| 20260831032949 | 66 | 224 | 0.0 | 0.0 | 0.07 | 0.15 | 0.15 | 99 | 1040.6 |
| 20260831032449 | 66 | 224 | 0.0 | 0.0 | 0.07 | 0.14 | 0.14 | 99 | 1040.5 |
| 20260831031944 | 67 | 224 | 0.0 | 0.0 | 0.05 | 0.13 | 0.13 | 99 | 1040.5 |
| 20260831031444 | 67 | 224 | 0.0 | 0.9 | 0.07 | 0.13 | 0.13 | 99 | 1040.6 |
| 20260831030943 | 67 | 309 | 0.0 | 0.9 | 0.07 | 0.13 | 0.13 | 99 | 1040.7 |
| 20260831030443 | 67 | 205 | 0.0 | 0.0 | 0.02 | 0.12 | 0.12 | 99 | 1040.6 |
| 20260831025941 | 67 | 282 | 0.0 | 0.9 | 0.00 | 0.11 | 0.11 | 99 | 1040.7 |
| 20260831025440 | 66 | 227 | 1.7 | 2.6 | 0.00 | 0.11 | 0.11 | 99 | 1040.6 |
| 20260831024936 | 66 | 242 | 0.0 | 2.6 | 0.02 | 0.11 | 0.11 | 99 | 1040.3 |
| 20260831024436 | 66 | 218 | 0.0 | 1.7 | 0.02 | 0.11 | 0.11 | 99 | 1040.4 |
| 20260831023931 | 66 | 312 | 0.0 | 1.7 | 0.00 | 0.11 | 0.11 | 99 | 1040.5 |
| 20260831023429 | 66 | 209 | 0.0 | 2.6 | 0.00 | 0.11 | 0.11 | 99 | 1040.6 |
| 20260831022924 | 66 | 164 | 0.0 | 0.9 | 0.00 | 0.11 | 0.11 | 99 | 1040.8 |
| 20260831022423 | 66 | 60 | 0.0 | 0.9 | 0.00 | 0.11 | 0.11 | 99 | 1040.8 |
| 20260831021918 | 66 | 329 | 0.0 | 0.0 | 0.00 | 0.11 | 0.11 | 99 | 1040.8 |
| 20260831021417 | 66 | 329 | 0.0 | 1.7 | 0.00 | 0.11 | 0.11 | 99 | 1040.9 |
| 20260831020914 | 66 | 294 | 0.9 | 1.7 | 0.00 | 0.11 | 0.11 | 99 | 1040.9 |
| 20260831020413 | 66 | 246 | 0.0 | 1.7 | 0.00 | 0.11 | 0.11 | 99 | 1040.6 |
| 20260831015908 | 66 | 212 | 0.0 | 1.7 | 0.00 | 0.11 | 0.11 | 99 | 1040.7 |
| 20260831015404 | 66 | 217 | 0.0 | 1.7 | 0.02 | 0.11 | 0.11 | 99 | 1041.0 |
| 20260831014859 | 66 | 269 | 0.0 | 1.7 | 0.05 | 0.11 | 0.11 | 99 | 1040.8 |
| 20260831014354 | 66 | 309 | 0.0 | 0.9 | 0.05 | 0.11 | 0.11 | 99 | 1040.9 |
| 20260831013849 | 66 | 264 | 1.7 | 2.6 | 0.05 | 0.10 | 0.10 | 99 | 1040.8 |
| 20260831013344 | 66 | 269 | 0.0 | 0.9 | 0.07 | 0.10 | 0.10 | 99 | 1041.0 |
| 20260831012843 | 66 | 229 | 0.0 | 0.9 | 0.05 | 0.09 | 0.09 | 99 | 1040.8 |
| 20260831012339 | 66 | 284 | 0.0 | 0.9 | 0.00 | 0.09 | 0.09 | 99 | 1040.6 |
| 20260831011834 | 66 | 290 | 0.0 | 2.6 | 0.02 | 0.09 | 0.09 | 99 | 1040.8 |
| 20260831011329 | 66 | 241 | 0.0 | 1.7 | 0.02 | 0.09 | 0.09 | 99 | 1040.8 |
| 20260831010824 | 66 | 242 | 0.0 | 1.7 | 0.00 | 0.08 | 0.08 | 99 | 1040.6 |
| 20260831010324 | 66 | 265 | 0.0 | 1.7 | 0.00 | 0.08 | 0.08 | 99 | 1040.6 |
| 20260831005819 | 66 | 220 | 0.0 | 1.7 | 0.02 | 0.08 | 0.08 | 99 | 1040.6 |
| 20260831005315 | 66 | 235 | 0.0 | 0.9 | 0.02 | 0.08 | 0.08 | 99 | 1040.7 |
| 20260831004810 | 66 | 135 | 0.0 | 0.9 | 0.02 | 0.08 | 0.08 | 99 | 1040.5 |
| 20260831004307 | 66 | 257 | 0.0 | 0.0 | 0.02 | 0.08 | 0.08 | 99 | 1040.4 |
| 20260831003802 | 66 | 256 | 0.0 | 0.9 | 0.00 | 0.07 | 0.07 | 99 | 1040.4 |
| 20260831003258 | 66 | 297 | 0.0 | 0.9 | 0.02 | 0.07 | 0.07 | 99 | 1040.2 |
| 20260831002756 | 66 | 284 | 0.0 | 1.7 | 0.00 | 0.07 | 0.07 | 99 | 1040.3 |
| 20260831002251 | 66 | 280 | 0.0 | 2.6 | 0.00 | 0.07 | 0.07 | 99 | 1040.1 |
| 20260831001747 | 66 | 242 | 0.9 | 2.6 | 0.00 | 0.07 | 0.07 | 99 | 1040.1 |
| 20260831001242 | 66 | 255 | 0.0 | 0.9 | 0.00 | 0.07 | 0.07 | 99 | 1040.0 |
| 20260831000739 | 66 | 142 | 0.0 | 0.9 | 0.00 | 0.07 | 0.07 | 99 | 1040.1 |
| 20260831000238 | 66 | 37 | 0.0 | 0.0 | 0.00 | 0.07 | 0.07 | 99 | 1040.0 |
| 20260830235737 | 66 | 37 | 0.0 | 0.9 | 0.00 | 0.07 | 0.07 | 99 | 1039.9 |
| 20260830235232 | 66 | 322 | 0.0 | 1.7 | 0.00 | 0.07 | 0.07 | 99 | 1039.9 |
| 20260830234727 | 66 | 269 | 0.0 | 0.9 | 0.00 | 0.07 | 0.07 | 99 | 1039.7 |
| 20260830234223 | 66 | 322 | 0.0 | 0.9 | 0.00 | 0.07 | 0.07 | 99 | 1039.7 |
| 20260830233719 | 67 | 126 | 0.0 | 0.9 | 0.00 | 0.07 | 0.07 | 99 | 1039.8 |
| 20260830233214 | 67 | 157 | 0.0 | 0.9 | 0.00 | 0.07 | 0.07 | 99 | 1039.8 |
| 20260830232709 | 67 | 89 | 0.0 | 0.9 | 0.00 | 0.07 | 0.07 | 98 | 1039.6 |
| 20260830232205 | 67 | 38 | 0.0 | 0.9 | 0.00 | 0.07 | 0.07 | 98 | 1039.9 |
| 20260830231701 | 67 | 351 | 0.0 | 0.0 | 0.00 | 0.07 | 0.07 | 98 | 1039.7 |
| 20260830231201 | 67 | 0 | 0.0 | 0.9 | 0.02 | 0.07 | 0.07 | 98 | 1039.5 |
| 20260830230656 | 67 | 129 | 0.0 | 0.9 | 0.02 | 0.07 | 0.07 | 98 | 1039.7 |
| 20260830230151 | 67 | 154 | 0.0 | 1.7 | 0.00 | 0.07 | 0.07 | 98 | 1039.6 |
| 20260830225646 | 67 | 142 | 0.9 | 1.7 | 0.00 | 0.07 | 0.07 | 98 | 1039.6 |
| 20260830225146 | 67 | 154 | 0.0 | 0.9 | 0.00 | 0.07 | 0.07 | 98 | 1039.7 |
| 20260830224644 | 67 | 66 | 0.0 | 0.0 | 0.00 | 0.07 | 0.07 | 98 | 1039.6 |
| 20260830224141 | 67 | 50 | 0.0 | 0.9 | 0.00 | 0.07 | 0.07 | 98 | 1039.7 |
| 20260830223638 | 67 | 124 | 0.0 | 0.9 | 0.00 | 0.07 | 0.07 | 97 | 1039.6 |
| 20260830223137 | 67 | 96 | 0.0 | 0.9 | 0.00 | 0.07 | 0.07 | 97 | 1039.9 |
| 20260830222632 | 67 | 293 | 0.0 | 1.7 | 0.00 | 0.07 | 0.07 | 97 | 1039.8 |
| 20260830222128 | 67 | 287 | 1.7 | 1.7 | 0.00 | 0.07 | 0.07 | 97 | 1039.8 |
| 20260830221623 | 67 | 117 | 0.0 | 0.9 | 0.00 | 0.07 | 0.07 | 97 | 1039.7 |
| 20260830221119 | 67 | 147 | 0.0 | 1.7 | 0.00 | 0.07 | 0.07 | 96 | 1039.7 |
| 20260830220615 | 66 | 120 | 0.0 | 0.9 | 0.00 | 0.07 | 0.07 | 96 | 1039.8 |
| 20260830220114 | 66 | 236 | 0.0 | 1.7 | 0.00 | 0.07 | 0.07 | 96 | 1039.8 |
| 20260830215613 | 66 | 269 | 0.0 | 2.6 | 0.05 | 0.07 | 0.07 | 96 | 1039.5 |
| 20260830215107 | 66 | 235 | 2.6 | 7.0 | 0.07 | 0.06 | 0.06 | 96 | 1039.3 |
| 20260830214602 | 67 | 209 | 0.9 | 1.7 | 0.05 | 0.06 | 0.06 | 95 | 1039.9 |
| 20260830214057 | 67 | 341 | 0.0 | 1.7 | 0.00 | 0.05 | 0.05 | 95 | 1040.1 |
| 20260830213557 | 67 | 316 | 0.0 | 1.7 | 0.00 | 0.05 | 0.05 | 94 | 1040.0 |
| 20260830213053 | 67 | 260 | 0.0 | 2.6 | 0.00 | 0.05 | 0.05 | 95 | 1039.8 |
| 20260830212549 | 67 | 238 | 0.9 | 2.6 | 0.00 | 0.05 | 0.05 | 95 | 1039.7 |
| 20260830212049 | 68 | 329 | 0.0 | 0.9 | 0.00 | 0.05 | 0.05 | 96 | 1039.7 |
| 20260830211544 | 67 | 157 | 0.0 | 0.9 | 0.00 | 0.05 | 0.05 | 96 | 1039.9 |
| 20260830211043 | 67 | 231 | 2.6 | 3.5 | 0.02 | 0.05 | 0.05 | 95 | 1039.9 |
| 20260830210538 | 68 | 227 | 0.0 | 1.7 | 0.00 | 0.04 | 0.04 | 95 | 1040.0 |
| 20260830210037 | 68 | 269 | 0.9 | 1.7 | 0.00 | 0.04 | 0.04 | 94 | 1039.9 |
| 20260830205535 | 68 | 255 | 0.0 | 2.6 | 0.00 | 0.04 | 0.04 | 94 | 1040.1 |
| 20260830205031 | 67 | 281 | 0.9 | 1.7 | 0.02 | 0.04 | 0.04 | 94 | 1040.0 |
| 20260830204530 | 68 | 211 | 0.0 | 0.9 | 0.05 | 0.04 | 0.04 | 93 | 1039.9 |
| 20260830204030 | 68 | 276 | 1.7 | 2.6 | 0.02 | 0.04 | 0.04 | 92 | 1040.2 |
| 20260830203526 | 69 | 274 | 2.6 | 3.5 | 0.02 | 0.04 | 0.04 | 91 | 1040.2 |
| 20260830203021 | 69 | 275 | 3.5 | 9.6 | 0.00 | 0.03 | 0.03 | 90 | 1040.0 |
| 20260830202515 | 70 | 254 | 3.5 | 9.6 | 0.00 | 0.03 | 0.03 | 93 | 1040.0 |
| 20260830202012 | 70 | 253 | 0.0 | 1.7 | 0.00 | 0.03 | 0.03 | 93 | 1040.0 |
| 20260830201510 | 70 | 297 | 0.0 | 0.9 | 0.00 | 0.03 | 0.03 | 93 | 1040.1 |
| 20260830201006 | 70 | 351 | 0.0 | 0.0 | 0.00 | 0.03 | 0.03 | 92 | 1040.1 |
| 20260830200501 | 70 | 333 | 0.0 | 0.9 | 0.00 | 0.03 | 0.03 | 92 | 1040.2 |
| 20260830200000 | 71 | 355 | 0.9 | 2.6 | 0.00 | 0.03 | 0.03 | 91 | 1040.0 |
| 20260830195455 | 71 | 269 | 0.0 | 2.6 | 0.00 | 0.03 | 0.03 | 91 | 1039.9 |
| 20260830194953 | 72 | 357 | 0.0 | 1.7 | 0.00 | 0.03 | 0.03 | 90 | 1040.1 |
| 20260830194452 | 72 | 32 | 0.0 | 1.7 | 0.00 | 0.03 | 0.03 | 89 | 1040.1 |
| 20260830193947 | 72 | 29 | 0.9 | 1.7 | 0.00 | 0.03 | 0.03 | 89 | 1039.9 |
| 20260830193446 | 72 | 220 | 0.0 | 2.6 | 0.00 | 0.03 | 0.03 | 89 | 1040.1 |
| 20260830192942 | 71 | 62 | 0.0 | 0.9 | 0.00 | 0.03 | 0.03 | 89 | 1040.1 |
| 20260830192437 | 71 | 62 | 0.0 | 1.7 | 0.00 | 0.03 | 0.03 | 90 | 1040.2 |
| 20260830191932 | 71 | 4 | 0.0 | 1.7 | 0.00 | 0.03 | 0.03 | 89 | 1040.2 |
| 20260830191432 | 71 | 354 | 0.0 | 1.7 | 0.00 | 0.03 | 0.03 | 89 | 1040.2 |
| 20260830190928 | 71 | 254 | 1.7 | 2.6 | 0.00 | 0.03 | 0.03 | 87 | 1040.2 |
| 20260830190422 | 71 | 308 | 1.7 | 2.6 | 0.00 | 0.03 | 0.03 | 87 | 1040.2 |
| 20260830185922 | 71 | 180 | 1.7 | 2.6 | 0.00 | 0.03 | 0.03 | 86 | 1040.1 |
| 20260830185417 | 71 | 242 | 1.7 | 3.5 | 0.00 | 0.03 | 0.03 | 86 | 1040.2 |
| 20260830184912 | 70 | 189 | 0.0 | 2.6 | 0.00 | 0.03 | 0.03 | 89 | 1040.3 |
| 20260830184411 | 70 | 245 | 1.7 | 3.5 | 0.00 | 0.03 | 0.03 | 88 | 1040.5 |
| 20260830183906 | 69 | 237 | 2.6 | 3.5 | 0.00 | 0.03 | 0.03 | 90 | 1040.5 |
| 20260830183406 | 69 | 207 | 0.0 | 3.5 | 0.00 | 0.03 | 0.03 | 92 | 1040.8 |
| 20260830182901 | 69 | 135 | 0.0 | 2.6 | 0.00 | 0.03 | 0.03 | 94 | 1040.6 |
| 20260830182357 | 68 | 144 | 0.9 | 0.9 | 0.00 | 0.03 | 0.03 | 95 | 1040.6 |
| 20260830181853 | 68 | 238 | 0.0 | 1.7 | 0.00 | 0.03 | 0.03 | 96 | 1040.7 |
| 20260830181348 | 68 | 154 | 0.9 | 1.7 | 0.00 | 0.03 | 0.03 | 97 | 1040.8 |
| 20260830180843 | 68 | 38 | 0.0 | 0.0 | 0.00 | 0.03 | 0.03 | 97 | 1040.8 |
| 20260830180342 | 69 | 1 | 0.0 | 0.9 | 0.00 | 0.03 | 0.03 | 97 | 1040.6 |
| 20260830175842 | 69 | 117 | 0.0 | 2.6 | 0.00 | 0.03 | 0.03 | 97 | 1040.7 |
| 20260830175336 | 68 | 209 | 0.0 | 2.6 | 0.00 | 0.03 | 0.03 | 97 | 1040.9 |
| 20260830174831 | 68 | 205 | 0.0 | 2.6 | 0.00 | 0.03 | 0.03 | 97 | 1040.9 |
| 20260830174327 | 68 | 142 | 0.0 | 1.7 | 0.00 | 0.03 | 0.03 | 97 | 1040.8 |
| 20260830173827 | 68 | 235 | 0.0 | 1.7 | 0.00 | 0.03 | 0.03 | 97 | 1040.7 |
| 20260830173322 | 68 | 75 | 0.0 | 0.0 | 0.00 | 0.03 | 0.03 | 97 | 1041.0 |
| 20260830172819 | 68 | 89 | 0.0 | 0.9 | 0.02 | 0.03 | 0.03 | 97 | 1041.0 |
| 20260830172315 | 68 | 117 | 0.0 | 1.7 | 0.00 | 0.03 | 0.03 | 97 | 1041.1 |
| 20260830171810 | 68 | 345 | 0.9 | 1.7 | 0.00 | 0.03 | 0.03 | 97 | 1041.0 |
| 20260830171306 | 68 | 41 | 0.0 | 1.7 | 0.00 | 0.03 | 0.03 | 96 | 1041.0 |
| 20260830170755 | 68 | 7 | 0.0 | 0.9 | 0.00 | 0.03 | 0.03 | 96 | 1041.2 |
| 20260830170254 | 69 | 2 | 0.0 | 1.7 | 0.00 | 0.03 | 0.03 | 95 | 1040.9 |
| 20260830165753 | 69 | 50 | 0.0 | 0.9 | 0.00 | 0.03 | 0.03 | 96 | 1041.1 |
| 20260830165249 | 69 | 124 | 0.0 | 2.6 | 0.00 | 0.03 | 0.03 | 96 | 1040.8 |
| 20260830164745 | 69 | 6 | 0.0 | 0.9 | 0.00 | 0.03 | 0.03 | 96 | 1041.0 |
| 20260830164240 | 68 | 45 | 0.0 | 0.9 | 0.00 | 0.03 | 0.03 | 96 | 1040.9 |
| 20260830163737 | 68 | 143 | 0.0 | 3.5 | 0.00 | 0.03 | 0.03 | 97 | 1040.8 |
| 20260830163232 | 68 | 60 | 0.0 | 1.7 | 0.00 | 0.03 | 0.03 | 97 | 1041.0 |
| 20260830162726 | 68 | 110 | 0.9 | 1.7 | 0.00 | 0.03 | 0.03 | 97 | 1040.8 |
| 20260830162223 | 68 | 103 | 0.0 | 1.7 | 0.00 | 0.03 | 0.03 | 97 | 1040.7 |
| 20260830161719 | 68 | 50 | 0.0 | 1.7 | 0.02 | 0.03 | 0.03 | 97 | 1040.9 |
| 20260830161213 | 68 | 22 | 0.0 | 0.9 | 0.02 | 0.03 | 0.03 | 97 | 1041.0 |
| 20260830160709 | 68 | 55 | 0.0 | 2.6 | 0.02 | 0.02 | 0.02 | 97 | 1040.9 |
| 20260830160208 | 68 | 115 | 2.6 | 2.6 | 0.05 | 0.02 | 0.02 | 96 | 1041.2 |
| 20260830155705 | 68 | 50 | 0.0 | 1.7 | 0.02 | 0.02 | 0.02 | 96 | 1041.1 |
| 20260830155200 | 68 | 45 | 0.9 | 2.6 | 0.02 | 0.02 | 0.02 | 96 | 1041.1 |
| 20260830154655 | 68 | 118 | 0.9 | 4.3 | 0.02 | 0.02 | 0.02 | 96 | 1041.1 |
| 20260830154151 | 69 | 210 | 1.7 | 3.5 | 0.00 | 0.01 | 0.01 | 95 | 1041.3 |
| 20260830153648 | 69 | 252 | 3.5 | 3.5 | 0.00 | 0.01 | 0.01 | 94 | 1041.3 |
| 20260830153148 | 69 | 351 | 0.0 | 0.0 | 0.00 | 0.01 | 0.01 | 94 | 1041.0 |
| 20260830152646 | 68 | 351 | 0.0 | 0.0 | 0.00 | 0.01 | 0.01 | 95 | 1041.2 |
| 20260830152146 | 68 | 89 | 0.0 | 1.7 | 0.00 | 0.01 | 0.01 | 95 | 1041.0 |
| 20260830151641 | 68 | 124 | 0.0 | 0.0 | 0.02 | 0.01 | 0.01 | 95 | 1041.2 |
| 20260830151141 | 67 | 77 | 0.0 | 0.9 | 0.02 | 0.01 | 0.01 | 95 | 1041.0 |
| 20260830150641 | 67 | 0 | 0.0 | 1.7 | 0.02 | 0.01 | 0.01 | 94 | 1041.1 |
| 20260830150136 | 67 | 326 | 0.0 | 0.0 | 0.00 | 0.00 | 0.00 | 94 | 1041.3 |
| 20260830145635 | 67 | 284 | 0.0 | 0.9 | 0.00 | 0.00 | 0.00 | 93 | 1041.0 |
| 20260830145131 | 67 | 103 | 0.0 | 0.9 | 0.02 | 0.00 | 0.00 | 92 | 1041.0 |
| 20260830144626 | 67 | 61 | 0.0 | 1.7 | 0.02 | 0.00 | 0.00 | 91 | 1041.1 |
| 20260830144122 | 68 | 60 | 0.0 | 0.9 | 0.00 | 0.00 | 0.00 | 90 | 1041.0 |
| 20260830143618 | 68 | 31 | 0.9 | 1.7 | 0.00 | 0.00 | 0.00 | 89 | 1040.7 |
| 20260830143115 | 69 | 315 | 0.0 | 0.0 | 0.00 | 0.00 | 0.00 | 88 | 1040.9 |
| 20260830142611 | 69 | 212 | 0.0 | 0.0 | 0.00 | 0.00 | 0.00 | 86 | 1040.5 |
| 20260830142106 | 69 | 212 | 0.0 | 0.0 | 0.00 | 0.00 | 0.00 | 85 | 1040.6 |